Aérodrome :
LOGIN :

S'inscrire | Disclaimer

   EN    FR    IT 

 










Légende :    VFR   VFR Marginal   IFR   IFR Intensif   IFR Très Intensif
Visi : 
Plafond : 
>= 8 km
>= 3000ft
5 à 8 km
1000 à 3000 ft
1500m à 5 km
500 à 1000 ft
800 à 1500m
200 à 500 ft
< 800m
< 200 ft
Symboles :   Orages  Brouillard  Fortes neiges  Fortes précipitations  Vent > 20 kt
SIGMETs :   Divers  Orages  Givrage  Turbulence  Onde Orograph.  Cendres Volcan.







- Altitude de l'aérodrome : 86 ft


LERT - Rota Navy

DERNIER METAR :
  • 200000Z 10014KT CAVOK 27/16 Q1015 NOSIG

METARs EXPIRÉS :
  • 192300Z 11016KT 080V140 CAVOK 27/17 Q1015 NOSIG
  • 192200Z 12018KT 090V150 CAVOK 27/17 Q1015 NOSIG

TAF TAF LERT
Valide du 20 à 00h jusqu'au 20 à 09h UTC


192300Z 2000/2009 12009KT CAVOK
PROB40
TEMPO 2000/2002 12015G25KT
Pas de NOTAMs connus pour ce terrain.



MET'MAP, la Météo Aéronautique d'un coup d'oeil ! - Copyright ORBIFLY Décembre 2007 - Disclaimer

ORBIFLY MET'MAP TEAM :

Programmation & Développement : Alexandra Zaïnal
Conception & Développement : Baudouin d'Aumeries
Co-Programmation & Développement : Marc-Olivier Méhu
Soutien technique & logistique : Manuel Goepfert

Contact : metmap@orbifly.com




SOURCES & CREDITS :

   NOAA